Temp
33 32 31 33 30 28 29 28 26 27 29 29 24 21 23 23 21 22 23 23 26 28 28 27 27 27 27 26 26 26 26 26 25 25 25 25 24 24 23 23 23 23 24 24 24 24 24 24 24 24 24 24 24 24 23 23 23 23 23 23 23 23 23
32 32 32 33 32 31 29 26 27 30 29 29 27 22 22 22 20 22 23 23 23 24 25 26 26 26 26 26 26 26 25 25 25 25 25 25 25 24 24 24 24 24 24 24 23 24 24 24 24 25 25 25 25 24 24 24 23 23 23 23 23 23 23
32 33 32 31 31 33 31 29 31 30 25 24 25 22 21 21 20 21 22 23 23 22 24 26 26 25 25 25 26 26 25 25 25 25 25 25 25 24 24 23 23 23 24 24 24 24 24 24 24 25 25 24 24 24 24 24 24 24 24 23 23 23 23
32 32 30 27 28 31 32 31 31 30 27 25 24 23 23 21 20 21 21 22 22 24 27 27 26 26 26 25 26 26 25 25 25 25 25 25 25 24 24 24 23 24 24 24 24 24 25 25 24 24 24 24 24 24 24 24 24 24 24 23 23 23 23
30 28 29 28 28 29 29 28 27 28 28 27 26 24 23 23 21 20 21 21 22 27 29 27 26 26 26 26 26 26 25 25 26 26 25 25 25 25 25 25 25 24 25 25 25 25 25 24 24 24 24 24 24 24 24 24 23 23 24 23 23 22 23
26 27 31 32 31 30 29 28 27 27 27 25 24 23 23 24 23 22 22 21 23 28 28 26 27 27 26 26 26 26 26 26 26 26 26 25 25 26 26 26 27 26 26 26 25 24 24 24 24 23 23 24 24 24 24 23 23 23 24 24 23 22 23
27 30 33 32 31 32 31 31 30 30 28 26 23 21 22 24 23 23 22 21 24 28 28 27 27 26 26 26 26 26 26 26 27 26 26 26 26 27 27 27 27 27 27 26 25 24 23 23 23 23 23 23 23 24 23 23 23 23 23 23 23 22 22
29 30 32 32 32 32 30 30 30 29 29 28 27 25 25 24 22 23 22 20 24 28 27 26 26 26 26 26 26 26 26 27 27 27 26 26 27 27 27 27 27 26 26 25 24 24 23 23 23 23 23 23 23 23 23 23 23 23 23 23 22 22 22
24 25 27 28 29 30 30 30 31 30 30 31 30 28 26 24 22 23 22 21 24 28 27 26 26 27 27 26 27 27 27 27 27 27 27 27 27 27 27 27 27 26 25 24 24 24 23 23 23 23 23 23 23 23 23 23 23 23 23 23 22 22 21
21 21 22 24 26 28 30 31 31 31 31 31 29 26 23 22 22 23 23 22 24 27 27 26 27 27 27 26 26 27 28 28 28 27 27 27 27 27 27 27 26 26 25 25 24 24 23 23 23 23 23 23 23 24 23 23 23 23 23 22 22 21 21
22 23 24 28 29 28 27 29 31 31 31 31 29 25 23 23 23 22 24 24 25 26 27 27 26 27 28 27 25 25 27 28 28 27 26 26 27 28 28 28 26 25 25 24 24 23 23 23 23 23 23 23 24 24 24 24 24 23 23 22 22 21 21
26 27 28 30 30 28 27 28 29 30 31 30 28 25 24 25 23 21 24 26 24 26 28 28 27 27 28 27 25 25 27 28 28 27 27 27 27 27 27 27 26 25 25 24 24 24 24 23 23 23 24 24 24 24 24 24 24 23 23 22 22 21 21
28 29 30 30 30 29 30 30 29 30 30 29 27 26 27 27 24 24 26 25 25 27 28 27 27 27 27 26 25 27 28 28 28 28 26 27 27 27 26 26 26 26 26 25 24 24 24 24 23 24 24 24 25 25 25 24 24 24 23 22 22 21 21
28 29 29 30 30 29 30 30 30 31 30 30 29 29 29 28 27 28 28 25 25 28 29 28 27 27 26 26 26 27 28 28 28 27 26 27 27 28 28 28 28 27 27 27 26 25 24 23 24 24 24 24 25 25 25 24 25 25 24 22 22 22 21
26 28 29 29 30 29 28 29 30 31 31 30 30 30 29 28 27 28 27 25 25 27 28 28 26 25 26 26 26 26 27 28 28 28 28 27 27 28 28 28 28 28 28 28 27 25 24 24 24 24 25 25 25 25 25 25 25 25 24 23 22 22 21
23 28 29 29 30 30 28 28 29 30 30 29 29 29 29 28 27 26 24 23 25 27 28 26 24 24 25 25 25 26 27 29 30 29 29 28 27 27 28 28 28 28 28 27 26 26 25 24 24 25 25 26 25 25 25 25 25 25 24 22 21 21 21
23 27 29 29 28 26 24 26 29 30 29 28 28 28 29 28 28 26 25 25 27 27 27 27 25 25 26 25 25 27 27 29 30 30 29 29 28 28 28 28 28 28 28 28 27 27 26 25 25 25 25 25 25 25 25 25 25 24 23 22 21 21 21
22 26 29 28 24 22 22 26 30 30 29 28 27 27 27 27 27 27 27 28 28 26 26 27 26 25 26 26 27 29 29 29 30 29 29 29 28 28 29 28 28 28 28 28 28 27 26 26 26 26 26 25 26 25 25 24 24 24 22 22 21 21 20
23 25 26 23 21 22 26 28 29 29 29 28 28 28 27 26 26 27 26 25 26 26 25 26 25 25 26 27 28 29 30 30 30 29 29 29 29 29 29 29 29 29 28 28 28 28 27 26 26 25 25 25 25 24 24 23 23 22 21 20 20 19 19
23 23 23 21 21 25 28 28 28 28 28 29 28 27 26 26 26 26 26 25 25 25 23 24 26 26 27 28 28 29 30 30 30 30 30 30 29 29 29 29 29 29 28 28 28 28 27 27 26 25 25 25 24 23 22 21 20 20 19 19 18 17 18
22 21 21 22 23 24 25 27 27 27 28 30 29 26 25 25 24 24 26 26 26 25 23 24 27 28 27 27 28 29 30 30 30 30 30 29 29 29 29 29 29 29 28 28 28 27 27 27 26 26 25 24 23 22 21 20 20 20 19 19 18 18 18
22 22 21 21 21 21 22 24 25 26 26 29 30 27 25 25 24 22 24 26 26 26 25 25 27 28 28 27 27 29 30 30 30 29 29 29 29 29 29 29 29 28 28 27 27 27 26 26 26 26 24 22 21 20 20 21 20 20 19 19 19 19 19
22 22 20 20 20 20 22 24 25 25 24 27 29 25 23 24 23 21 24 25 24 25 24 24 27 28 27 27 27 28 29 29 29 29 28 29 29 29 29 28 28 28 28 27 27 27 26 26 26 25 24 22 21 21 21 20 20 19 19 19 19 20 19
22 21 20 20 21 21 23 24 24 24 24 27 27 22 21 23 22 21 24 24 23 24 24 24 26 27 26 26 27 27 28 29 29 28 28 28 28 28 28 28 28 28 28 28 28 27 27 26 25 25 23 22 21 21 21 20 20 20 20 20 20 20 20
21 21 20 20 21 22 23 23 23 24 27 26 23 20 21 23 22 22 23 23 22 24 25 24 24 24 25 26 26 26 27 28 28 28 28 28 28 27 27 28 28 28 27 27 27 27 27 26 26 25 24 23 22 22 21 21 21 21 22 21 20 20 19
21 21 20 20 21 22 22 22 23 25 26 23 20 21 23 22 21 22 23 23 23 24 24 24 24 24 25 26 26 26 26 26 27 27 27 27 27 27 27 27 27 27 27 27 27 27 27 26 26 25 25 24 23 22 22 22 22 22 22 21 20 20 19
20 20 20 19 20 21 22 22 23 23 22 21 21 22 22 21 22 22 22 23 24 24 24 24 24 25 25 25 25 26 26 26 26 26 26 27 27 27 27 26 27 27 27 27 27 27 26 26 25 25 25 24 24 23 23 23 22 22 22 21 20 19 19
20 19 19 19 19 20 21 22 21 20 20 21 22 21 20 21 22 22 22 22 23 23 24 24 24 24 25 25 25 25 25 26 26 26 26 26 26 26 26 26 26 26 27 27 26 26 26 25 25 24 24 24 24 23 23 23 22 22 21 20 19 19 18
19 19 18 19 19 20 20 21 20 20 20 21 21 21 20 20 21 21 21 22 22 23 23 23 23 24 23 24 24 24 25 25 25 25 25 25 25 26 26 26 26 26 26 26 26 26 25 25 24 23 23 23 22 22 22 22 21 21 21 20 19 19 18
19 19 19 19 19 20 20 20 20 21 21 21 22 22 21 21 21 21 21 21 21 22 23 23 23 23 23 24 24 24 24 24 24 25 25 25 25 25 25 25 25 25 24 25 25 25 24 23 22 21 21 20 20 19 20 20 20 20 20 19 19 18 17
19 20 19 19 19 19 20 21 21 21 21 21 21 21 21 21 22 22 22 21 21 21 22 22 22 22 23 23 23 23 23 23 24 24 24 24 25 25 25 25 25 24 24 24 24 23 22 22 21 20 19 19 19 19 19 19 18 18 18 18 18 17 17
19 19 19 19 19 20 20 21 21 21 21 21 21 21 21 21 21 22 22 22 21 21 21 21 21 22 22 22 23 23 23 23 23 24 24 24 24 24 24 25 25 24 24 23 23 22 22 21 20 19 19 19 19 18 18 17 17 16 16 16 16 17 17
18 18 18 19 19 20 20 21 20 21 21 21 21 21 21 21 21 21 22 22 21 21 20 20 20 21 22 22 22 22 23 23 23 23 23 24 24 24 24 24 24 24 24 23 22 21 21 21 20 19 18 18 18 18 17 17 17 16 15 15 16 16 16
18 18 19 19 19 20 19 20 20 20 20 21 21 20 20 20 20 20 20 21 21 20 20 19 20 20 20 21 21 22 22 23 23 23 23 23 23 24 24 23 23 23 22 22 22 21 20 19 19 19 18 18 17 18 17 17 17 16 15 15 15 15 16
17 18 19 19 19 19 19 19 20 20 20 20 20 20 20 20 20 20 20 20 20 19 19 19 19 19 20 21 21 22 22 22 22 23 23 23 23 23 23 23 23 22 21 21 21 20 18 18 18 18 17 17 16 16 16 16 16 16 15 15 16 16 16
16 17 18 19 19 19 19 19 20 19 20 20 20 19 20 20 20 20 20 19 19 19 19 19 19 19 20 20 21 22 22 21 22 22 23 23 23 23 23 23 22 21 20 20 20 19 18 18 18 18 17 17 18 18 18 17 17 17 17 16 16 16 17
16 16 17 19 19 19 19 20 20 19 19 20 19 19 19 19 19 19 19 19 19 18 19 19 19 19 20 20 20 21 21 21 21 21 22 22 22 22 22 22 22 21 20 19 19 19 19 19 19 19 19 19 19 19 19 18 18 18 18 18 17 17 17
Height
1427 1430 1429 1427 1440 1453 1452 1453 1460 1458 1451 1456 1474 1485 1479 1479 1490 1487 1477 1475 1468 1461 1458 1451 1450 1453 1453 1457 1461 1465 1470 1474 1478 1481 1482 1484 1487 1489 1492 1493 1495 1498 1500 1503 1505 1508 1510 1512 1514 1516 1517 1518 1520 1523 1525 1528 1530 1532 1533 1534 1536 1538 1539
1427 1421 1424 1424 1425 1435 1447 1455 1453 1448 1449 1453 1465 1482 1486 1489 1499 1488 1475 1477 1475 1473 1472 1461 1457 1459 1457 1457 1458 1462 1467 1471 1475 1476 1478 1481 1483 1485 1488 1490 1492 1495 1497 1499 1502 1504 1506 1507 1508 1510 1512 1513 1515 1518 1520 1523 1525 1527 1529 1530 1532 1534 1535
1427 1417 1426 1434 1426 1423 1434 1440 1437 1444 1462 1467 1468 1480 1490 1498 1504 1493 1480 1477 1477 1476 1471 1463 1461 1462 1459 1457 1458 1461 1465 1468 1470 1473 1475 1478 1481 1485 1487 1489 1492 1493 1494 1497 1499 1501 1503 1504 1505 1506 1508 1510 1512 1514 1516 1518 1520 1522 1525 1527 1528 1530 1532
1425 1423 1431 1442 1438 1429 1428 1432 1434 1439 1451 1460 1465 1471 1477 1487 1499 1498 1488 1482 1476 1468 1460 1457 1458 1457 1457 1459 1459 1459 1461 1463 1466 1469 1473 1476 1478 1482 1484 1487 1489 1489 1491 1493 1495 1497 1499 1500 1502 1504 1506 1508 1509 1511 1513 1515 1518 1521 1523 1525 1526 1527 1529
1427 1432 1431 1434 1438 1437 1437 1441 1446 1445 1445 1449 1457 1464 1466 1472 1485 1494 1493 1488 1475 1457 1449 1450 1450 1449 1451 1453 1453 1455 1457 1460 1463 1465 1468 1471 1473 1477 1480 1483 1484 1485 1488 1490 1491 1493 1495 1497 1500 1501 1503 1505 1507 1509 1511 1512 1515 1517 1520 1522 1523 1525 1526
1433 1431 1420 1418 1423 1428 1434 1440 1443 1445 1447 1451 1461 1471 1467 1462 1469 1479 1485 1486 1471 1449 1441 1443 1444 1444 1445 1445 1448 1452 1454 1457 1459 1462 1464 1467 1470 1473 1476 1477 1479 1482 1483 1485 1487 1489 1492 1495 1497 1498 1500 1502 1504 1505 1507 1509 1512 1514 1516 1517 1519 1522 1524
1430 1422 1411 1409 1413 1416 1423 1429 1432 1437 1442 1448 1460 1471 1467 1461 1464 1467 1473 1479 1466 1444 1438 1439 1441 1442 1443 1445 1447 1449 1451 1453 1455 1458 1461 1465 1467 1469 1471 1473 1475 1477 1478 1480 1483 1486 1489 1490 1492 1494 1496 1498 1500 1501 1503 1506 1508 1511 1513 1515 1517 1520 1522
1424 1417 1409 1406 1407 1413 1423 1427 1427 1432 1437 1439 1445 1453 1456 1459 1463 1464 1471 1480 1465 1443 1436 1438 1440 1441 1442 1443 1444 1445 1448 1450 1451 1455 1458 1462 1464 1465 1467 1469 1470 1472 1474 1477 1480 1482 1485 1487 1489 1491 1493 1495 1497 1499 1501 1502 1505 1508 1511 1513 1515 1518 1520
1440 1434 1429 1422 1417 1418 1424 1426 1425 1427 1430 1432 1436 1443 1450 1457 1460 1459 1467 1476 1463 1443 1438 1439 1439 1441 1441 1441 1442 1443 1445 1446 1449 1452 1455 1457 1460 1462 1464 1466 1467 1469 1471 1474 1477 1479 1481 1483 1485 1487 1489 1492 1493 1495 1497 1499 1502 1505 1508 1510 1512 1515 1518
1453 1450 1443 1434 1427 1424 1422 1422 1422 1424 1426 1429 1435 1444 1454 1460 1460 1457 1460 1464 1456 1445 1442 1443 1442 1442 1443 1443 1443 1443 1443 1444 1446 1449 1451 1454 1456 1459 1461 1462 1464 1466 1468 1471 1473 1475 1477 1479 1481 1484 1486 1488 1489 1491 1493 1495 1499 1502 1504 1507 1509 1512 1515
1437 1437 1429 1419 1418 1423 1425 1423 1421 1422 1424 1425 1431 1443 1452 1454 1456 1457 1454 1451 1452 1450 1447 1447 1445 1443 1442 1442 1442 1441 1441 1442 1444 1446 1449 1451 1453 1456 1457 1458 1461 1464 1466 1469 1470 1472 1474 1476 1478 1480 1482 1484 1486 1488 1490 1492 1496 1498 1501 1503 1505 1508 1512
1420 1419 1416 1411 1412 1418 1421 1421 1420 1420 1421 1423 1430 1439 1443 1443 1452 1458 1450 1446 1450 1449 1444 1443 1443 1440 1439 1439 1438 1439 1439 1440 1442 1445 1447 1449 1452 1454 1455 1457 1459 1461 1464 1466 1468 1469 1471 1472 1474 1476 1479 1481 1483 1484 1486 1489 1492 1494 1496 1498 1501 1505 1508
1413 1411 1411 1409 1411 1414 1415 1416 1418 1418 1419 1423 1428 1433 1432 1434 1443 1446 1442 1442 1445 1440 1437 1437 1434 1432 1433 1434 1435 1436 1437 1439 1441 1443 1446 1448 1450 1452 1454 1456 1457 1459 1461 1462 1464 1466 1467 1468 1471 1473 1475 1478 1480 1482 1483 1485 1488 1490 1491 1493 1496 1500 1503
1411 1409 1410 1408 1409 1413 1413 1412 1413 1413 1416 1419 1422 1425 1425 1427 1430 1429 1431 1439 1439 1430 1427 1427 1425 1425 1428 1431 1434 1435 1436 1438 1440 1442 1445 1447 1448 1450 1452 1453 1455 1457 1458 1459 1460 1462 1463 1466 1467 1469 1472 1474 1476 1478 1480 1482 1484 1485 1487 1489 1491 1495 1497
1413 1408 1407 1407 1408 1412 1414 1413 1411 1410 1413 1415 1417 1419 1421 1424 1428 1426 1429 1438 1437 1425 1418 1419 1421 1425 1428 1431 1433 1434 1435 1437 1439 1441 1444 1445 1447 1448 1450 1452 1454 1455 1457 1457 1458 1459 1461 1462 1464 1466 1468 1470 1472 1475 1476 1478 1480 1481 1483 1484 1487 1491 1494
1416 1406 1406 1408 1405 1408 1414 1414 1412 1412 1414 1416 1416 1416 1418 1421 1426 1429 1434 1439 1434 1422 1417 1421 1424 1425 1427 1429 1431 1432 1434 1436 1437 1439 1441 1443 1446 1448 1450 1452 1454 1455 1456 1457 1457 1458 1459 1460 1461 1463 1465 1467 1470 1471 1473 1475 1477 1479 1480 1482 1486 1489 1493
1415 1406 1405 1406 1406 1417 1426 1417 1408 1411 1414 1416 1417 1416 1415 1415 1418 1427 1434 1430 1420 1416 1418 1423 1427 1427 1426 1426 1427 1430 1432 1434 1436 1438 1440 1443 1446 1448 1451 1452 1454 1455 1456 1456 1456 1456 1457 1458 1460 1462 1464 1465 1467 1468 1470 1472 1474 1475 1477 1479 1482 1484 1488
1412 1406 1400 1404 1419 1435 1434 1414 1401 1405 1411 1414 1418 1420 1418 1414 1412 1416 1419 1415 1411 1414 1417 1419 1422 1424 1422 1423 1425 1427 1430 1432 1435 1438 1441 1444 1446 1449 1451 1452 1453 1454 1455 1455 1456 1456 1456 1458 1459 1462 1463 1464 1465 1466 1468 1469 1470 1471 1473 1475 1477 1480 1485
1409 1406 1403 1419 1437 1434 1419 1407 1402 1402 1405 1408 1414 1418 1417 1413 1410 1410 1413 1413 1411 1412 1414 1415 1418 1421 1422 1425 1427 1428 1430 1432 1435 1438 1441 1443 1446 1448 1449 1450 1451 1452 1453 1454 1455 1455 1456 1458 1459 1461 1463 1463 1464 1466 1467 1468 1469 1470 1473 1475 1477 1480 1484
1408 1409 1413 1428 1433 1419 1408 1409 1407 1404 1406 1409 1415 1422 1422 1418 1415 1414 1414 1414 1412 1412 1415 1417 1420 1423 1425 1428 1430 1431 1433 1435 1436 1439 1441 1443 1445 1447 1448 1449 1450 1450 1451 1452 1453 1454 1456 1458 1459 1461 1462 1463 1464 1465 1467 1469 1472 1473 1475 1476 1478 1481 1483
1409 1415 1420 1422 1423 1420 1419 1417 1412 1409 1409 1409 1415 1427 1429 1422 1420 1420 1418 1415 1414 1415 1418 1420 1422 1424 1428 1432 1434 1433 1435 1436 1437 1439 1441 1442 1444 1445 1446 1448 1448 1449 1450 1451 1452 1454 1455 1457 1459 1460 1461 1462 1464 1465 1466 1467 1470 1471 1471 1472 1474 1478 1482
1408 1414 1423 1426 1430 1435 1430 1421 1413 1407 1405 1403 1406 1422 1431 1424 1420 1422 1420 1418 1417 1417 1419 1422 1423 1426 1433 1438 1437 1434 1435 1437 1438 1439 1441 1441 1442 1444 1445 1447 1447 1448 1449 1450 1452 1454 1455 1456 1458 1458 1459 1461 1462 1463 1462 1462 1464 1465 1467 1469 1471 1475 1480
1408 1414 1426 1431 1434 1435 1429 1420 1411 1406 1406 1402 1403 1424 1439 1429 1420 1422 1420 1419 1420 1419 1420 1422 1422 1429 1440 1443 1438 1434 1436 1437 1437 1439 1440 1441 1442 1444 1444 1445 1446 1447 1448 1449 1450 1452 1453 1454 1456 1456 1457 1458 1459 1460 1459 1460 1461 1463 1467 1471 1472 1473 1475
1415 1420 1427 1429 1428 1429 1424 1417 1411 1407 1403 1399 1412 1442 1451 1432 1422 1424 1421 1420 1422 1421 1421 1423 1424 1431 1440 1440 1437 1435 1436 1437 1438 1440 1441 1442 1443 1444 1444 1445 1445 1446 1446 1447 1448 1450 1451 1452 1454 1455 1455 1455 1457 1458 1458 1459 1460 1461 1465 1469 1470 1470 1472
1420 1424 1428 1429 1427 1424 1419 1414 1409 1402 1400 1411 1434 1453 1447 1431 1428 1427 1422 1423 1425 1423 1423 1426 1428 1432 1435 1436 1437 1436 1436 1437 1439 1440 1442 1443 1444 1444 1444 1444 1445 1445 1446 1446 1447 1448 1449 1450 1452 1453 1453 1454 1455 1455 1455 1456 1456 1458 1462 1465 1467 1469 1471
1424 1427 1430 1433 1432 1423 1415 1412 1407 1400 1410 1434 1446 1442 1434 1432 1432 1429 1426 1428 1429 1428 1428 1429 1432 1434 1435 1435 1436 1436 1437 1438 1439 1440 1442 1442 1443 1443 1443 1443 1444 1444 1445 1445 1445 1446 1447 1448 1450 1451 1451 1451 1451 1452 1452 1452 1453 1456 1461 1464 1465 1468 1470
1427 1430 1434 1441 1442 1428 1414 1412 1412 1412 1423 1438 1437 1431 1432 1433 1431 1429 1431 1431 1431 1432 1433 1433 1434 1436 1435 1436 1437 1437 1437 1438 1439 1440 1441 1441 1441 1442 1442 1443 1443 1443 1443 1444 1444 1444 1445 1446 1448 1448 1449 1448 1448 1448 1449 1449 1452 1456 1459 1461 1464 1466 1468
1429 1438 1444 1446 1444 1432 1418 1416 1422 1426 1428 1430 1430 1430 1432 1431 1430 1431 1433 1433 1434 1435 1434 1434 1435 1435 1435 1437 1437 1438 1438 1438 1438 1439 1439 1439 1440 1440 1440 1441 1441 1441 1442 1442 1442 1443 1444 1445 1446 1446 1446 1445 1445 1445 1446 1448 1451 1454 1456 1459 1462 1464 1468
1430 1439 1443 1439 1436 1432 1425 1422 1425 1428 1428 1429 1430 1430 1429 1430 1433 1434 1433 1435 1437 1437 1435 1435 1434 1435 1436 1437 1437 1438 1439 1438 1438 1438 1438 1438 1439 1440 1440 1440 1440 1441 1441 1440 1440 1441 1442 1443 1444 1445 1445 1445 1446 1447 1449 1451 1452 1453 1454 1457 1460 1463 1469
1430 1434 1437 1434 1433 1433 1431 1428 1428 1429 1429 1431 1431 1430 1430 1431 1434 1435 1437 1440 1442 1441 1439 1437 1436 1437 1438 1438 1438 1439 1439 1438 1438 1438 1438 1439 1440 1440 1440 1440 1440 1440 1440 1440 1440 1441 1441 1443 1444 1445 1445 1446 1448 1451 1453 1454 1455 1455 1455 1456 1459 1464 1469
1433 1436 1436 1433 1433 1434 1433 1432 1431 1430 1431 1431 1431 1432 1434 1435 1435 1438 1441 1443 1445 1444 1441 1439 1439 1439 1437 1437 1439 1440 1440 1439 1439 1439 1440 1440 1439 1439 1440 1440 1440 1441 1441 1442 1442 1441 1442 1443 1444 1444 1446 1447 1450 1453 1455 1457 1460 1460 1459 1460 1462 1464 1466
1432 1436 1435 1432 1432 1434 1433 1433 1433 1432 1432 1432 1431 1432 1435 1436 1437 1438 1440 1442 1443 1442 1441 1441 1441 1439 1438 1439 1440 1441 1441 1441 1440 1440 1440 1439 1439 1439 1439 1439 1440 1440 1440 1441 1441 1441 1441 1442 1443 1445 1448 1449 1452 1454 1456 1459 1462 1464 1463 1464 1464 1464 1464
1433 1434 1433 1431 1433 1434 1433 1434 1435 1434 1434 1433 1432 1433 1434 1434 1436 1438 1439 1441 1443 1443 1443 1444 1441 1440 1440 1441 1442 1443 1443 1441 1440 1440 1439 1439 1439 1439 1439 1439 1439 1439 1439 1440 1440 1440 1440 1441 1443 1445 1446 1447 1450 1452 1454 1455 1457 1459 1462 1465 1464 1463 1463
1436 1434 1431 1432 1436 1438 1438 1438 1437 1436 1435 1434 1433 1434 1435 1436 1438 1439 1440 1441 1442 1443 1445 1446 1445 1444 1444 1444 1445 1445 1443 1441 1440 1440 1439 1439 1439 1439 1439 1439 1439 1439 1439 1439 1440 1440 1440 1441 1443 1443 1444 1445 1446 1448 1450 1451 1453 1456 1462 1466 1468 1467 1467
1432 1431 1431 1433 1436 1439 1441 1440 1439 1438 1437 1435 1435 1436 1437 1438 1440 1441 1441 1442 1442 1444 1447 1450 1450 1449 1448 1447 1446 1444 1442 1441 1440 1438 1438 1439 1439 1439 1439 1439 1439 1439 1438 1439 1439 1439 1439 1440 1441 1441 1443 1444 1446 1447 1450 1453 1454 1458 1464 1469 1470 1470 1470
1435 1437 1438 1437 1437 1439 1442 1442 1441 1440 1439 1437 1437 1437 1437 1437 1440 1442 1444 1444 1445 1447 1449 1449 1449 1448 1447 1446 1444 1442 1440 1440 1438 1438 1438 1438 1438 1438 1438 1438 1438 1438 1437 1437 1438 1439 1440 1441 1442 1443 1445 1446 1447 1449 1451 1453 1455 1457 1461 1464 1465 1465 1465
1440 1444 1443 1439 1438 1440 1442 1442 1442 1441 1440 1438 1438 1437 1438 1439 1441 1443 1444 1445 1446 1448 1447 1447 1446 1446 1444 1443 1442 1440 1439 1438 1438 1438 1437 1437 1437 1437 1437 1436 1437 1436 1436 1436 1438 1439 1440 1442 1442 1443 1444 1445 1446 1447 1449 1452 1453 1455 1457 1458 1459 1460 1462
Wind_Speed
11 11 10 11 10 6 4 4 5 5 7 7 3 5 2 3 2 4 3 2 4 2 4 6 4 7 10 15 17 20 24 27 30 33 35 38 39 41 43 45 47 48 48 49 50 49 47 46 44 45 45 44 43 42 40 38 35 32 30 29 27 26 25
12 15 13 10 10 9 5 6 7 3 2 4 4 2 2 4 1 4 3 3 3 2 3 5 2 7 11 13 14 16 21 25 28 32 37 39 42 43 45 46 47 48 49 50 50 51 50 48 47 47 47 46 45 43 42 41 39 36 33 31 30 29 27
10 11 10 8 8 8 6 5 6 5 4 2 1 3 2 1 2 3 4 4 3 4 5 4 5 9 11 12 13 13 15 21 26 31 35 38 40 41 41 43 45 47 49 51 51 52 51 50 49 48 47 47 46 44 43 42 40 37 35 33 32 31 29
8 6 5 7 7 4 2 4 4 3 4 6 3 3 4 4 3 3 4 5 3 5 6 7 10 10 10 11 12 12 16 23 29 31 33 37 40 41 42 44 46 48 51 52 52 53 53 52 51 50 50 49 47 46 45 43 41 38 36 35 35 34 31
8 7 5 8 8 6 3 4 4 2 0 3 3 2 2 5 4 3 3 3 5 5 5 8 12 12 13 15 15 13 16 25 31 33 37 40 42 44 45 46 48 50 52 52 53 54 54 54 52 52 52 51 49 48 46 46 43 41 38 36 37 36 32
5 6 8 11 12 10 7 6 6 5 3 4 4 3 2 2 5 5 5 4 6 6 4 8 11 11 11 15 15 12 17 27 33 35 38 40 42 44 46 48 50 51 52 54 55 55 54 53 53 54 54 52 52 50 49 49 46 43 40 38 38 37 33
7 7 10 13 13 11 9 6 6 6 5 5 6 5 4 2 3 3 4 3 6 6 5 7 7 8 10 16 18 16 21 31 34 33 35 39 43 46 48 50 51 52 53 55 55 54 54 54 55 55 55 55 54 53 52 51 49 46 41 39 38 37 35
6 7 9 10 10 9 6 4 5 6 5 6 6 5 5 4 4 4 3 3 6 6 4 7 8 11 14 20 25 24 24 29 34 34 34 38 43 47 48 50 52 53 53 53 53 54 54 54 54 55 55 55 55 54 53 52 50 46 42 40 39 38 36
4 5 6 7 7 6 4 3 6 7 7 8 5 3 3 3 5 6 5 4 7 5 1 5 8 12 13 16 24 29 28 29 32 34 36 40 43 46 48 50 52 51 51 51 53 54 55 54 55 55 55 56 55 55 54 53 50 46 43 41 40 39 36
5 6 7 7 5 4 2 4 7 8 9 12 7 4 4 4 4 5 6 5 7 5 1 3 7 11 12 11 17 25 29 31 33 34 36 40 42 44 47 49 50 50 50 51 53 54 55 55 55 56 56 56 56 55 54 52 49 46 43 43 42 40 37
8 8 9 8 7 7 6 6 10 9 9 11 8 6 5 6 4 4 6 6 5 4 4 6 8 11 13 11 10 17 23 27 32 34 35 39 42 44 46 46 48 48 47 48 51 52 54 55 55 56 57 56 56 55 54 51 48 45 44 45 43 41 38
13 10 9 8 9 11 10 10 12 10 9 10 9 7 7 7 7 4 9 7 11 11 11 12 12 12 11 8 10 18 23 26 31 34 34 38 40 41 43 43 44 45 45 47 50 52 54 55 56 56 57 56 55 55 53 50 47 45 45 46 44 42 39
14 12 10 8 10 12 12 12 13 12 11 10 9 10 9 9 9 8 9 11 15 15 14 14 16 15 14 14 20 27 28 28 31 31 31 35 37 38 39 39 41 43 45 47 50 53 55 56 56 56 56 56 55 55 53 50 48 46 46 47 45 43 41
12 12 11 9 9 10 12 15 15 13 12 12 12 12 10 10 11 10 11 14 14 14 15 18 19 20 20 22 25 27 28 29 29 27 28 31 34 36 35 35 37 41 44 47 49 52 54 55 56 57 56 56 56 56 55 52 49 47 47 47 46 44 44
9 10 8 7 8 8 11 14 13 10 10 11 12 12 10 9 9 7 12 14 11 10 11 13 17 20 20 19 19 22 26 29 27 25 27 29 31 33 33 33 34 37 42 45 48 51 53 55 57 57 56 56 56 56 56 54 51 48 48 49 47 46 45
6 6 5 4 4 3 5 10 8 5 4 5 6 5 5 6 6 5 9 10 10 9 5 5 9 14 16 15 16 21 25 28 27 25 27 28 27 27 28 30 32 35 40 43 45 49 52 54 56 56 56 55 55 56 57 55 52 49 49 49 46 46 44
5 5 7 7 6 5 3 7 4 5 5 5 4 3 2 3 6 6 6 8 10 7 7 8 8 10 13 16 21 26 27 27 27 24 24 25 23 20 19 20 23 27 32 35 40 46 49 52 54 54 55 55 55 56 56 55 53 51 50 49 48 48 44
5 5 6 7 6 4 3 7 1 6 9 9 8 5 3 0 4 6 4 6 6 7 10 12 12 12 16 21 26 29 27 25 23 22 22 21 19 17 14 12 12 14 17 22 29 37 45 49 49 49 52 53 53 53 54 55 54 52 51 50 49 49 44
3 2 6 5 2 4 4 6 2 6 10 11 10 7 6 6 7 8 7 4 4 7 9 12 14 15 18 21 23 23 22 21 20 19 17 16 14 13 11 8 7 8 9 11 16 25 34 40 44 47 50 51 52 53 53 53 51 50 49 47 46 46 43
3 3 5 5 7 4 3 2 1 4 7 8 9 9 9 10 6 7 9 8 7 8 11 16 21 21 19 18 18 18 17 15 14 13 13 14 12 9 7 5 5 7 7 7 9 13 20 28 36 42 46 49 51 50 47 43 40 41 43 41 42 42 41
4 5 3 2 2 3 5 2 2 2 2 5 7 5 4 8 8 5 6 9 10 11 13 18 24 24 18 12 9 12 12 9 7 8 11 14 11 6 5 4 4 7 5 3 3 6 12 19 27 33 39 44 45 41 39 39 39 41 43 44 44 44 45
2 5 4 2 2 2 3 5 6 5 0 8 10 6 3 6 10 9 2 9 11 11 13 18 21 19 12 4 3 7 9 7 8 10 12 13 8 2 4 6 4 5 5 2 1 4 9 16 22 29 36 40 38 37 41 44 45 44 44 45 44 46 47
3 5 4 1 3 4 4 7 7 9 4 6 9 8 3 6 13 13 1 8 10 9 13 17 17 12 6 4 3 3 7 9 10 13 13 9 4 3 5 6 7 9 8 4 5 7 9 12 18 25 35 39 37 37 41 43 43 42 41 41 42 46 48
4 4 3 1 2 1 3 7 8 10 4 4 7 5 3 8 14 10 3 7 8 10 12 12 10 6 4 6 2 4 7 11 9 9 8 3 3 6 7 7 7 7 7 7 10 12 12 11 13 20 30 36 36 37 38 40 42 42 40 40 42 46 46
4 3 1 1 1 1 4 7 9 12 6 7 7 3 6 8 12 12 16 15 14 15 17 14 10 9 7 8 13 14 10 9 6 5 4 1 1 2 2 5 7 9 11 12 13 13 12 10 10 13 22 30 35 39 40 42 46 44 37 36 41 44 39
2 2 1 1 1 3 8 8 11 14 7 4 3 4 2 6 10 18 25 23 21 23 24 21 18 17 17 16 17 17 13 10 8 6 4 4 4 5 8 10 13 16 17 16 16 16 14 11 10 11 16 24 32 38 41 44 46 42 33 30 36 40 36
3 3 3 1 2 8 15 11 8 11 5 5 5 5 7 13 16 20 24 24 24 23 22 21 21 20 19 19 18 16 13 11 11 10 9 9 9 10 10 10 14 17 17 17 18 18 15 12 12 12 15 21 28 35 39 41 41 38 29 26 30 34 35
3 3 3 1 5 10 12 7 6 6 8 12 13 14 16 20 23 23 24 26 26 25 23 23 23 21 20 19 18 16 14 13 13 13 13 14 14 14 14 12 13 15 17 18 18 16 14 12 13 13 16 21 27 31 32 33 34 32 27 26 28 29 29
4 4 1 1 5 10 17 21 18 16 20 23 24 25 25 26 27 26 27 27 26 24 24 25 25 24 23 21 18 17 15 14 15 16 16 17 15 14 15 14 13 16 19 19 17 16 13 11 11 13 17 22 25 26 26 25 26 25 23 25 27 25 23
5 5 3 4 8 13 18 22 22 23 24 22 23 26 27 26 25 25 26 27 25 22 21 23 23 22 21 20 19 18 17 17 17 17 17 17 15 13 13 13 14 15 17 16 15 13 11 11 13 17 21 22 19 18 20 21 21 21 23 26 25 22 21
4 3 2 3 7 12 15 19 21 23 24 22 21 21 20 20 20 19 19 21 24 24 23 23 23 21 20 20 19 18 17 17 16 15 15 16 15 14 13 11 12 12 12 13 13 12 12 14 16 19 20 20 16 13 15 18 17 14 17 20 18 15 15
3 2 3 2 7 14 17 19 19 19 21 23 22 19 17 16 16 15 14 15 20 25 25 24 24 23 22 21 20 19 17 16 15 14 14 15 15 13 12 10 11 11 11 13 15 16 16 16 18 17 14 14 15 14 12 12 13 15 16 13 12 12 11
3 2 2 2 6 12 14 16 16 15 16 18 20 19 18 17 16 15 13 12 14 20 23 23 23 23 22 21 21 23 21 17 15 14 13 13 13 12 11 10 10 10 11 15 19 20 20 20 20 19 19 22 24 22 20 19 17 14 14 16 15 14 12
3 2 4 4 4 4 6 9 12 12 11 13 17 19 20 21 19 15 14 12 12 14 16 19 20 22 22 20 19 21 20 18 16 13 11 11 11 11 11 9 9 11 13 17 21 22 22 22 24 26 27 27 25 24 22 19 14 9 10 13 14 13 13
2 3 6 9 9 6 5 10 13 13 13 14 16 17 18 19 18 16 16 16 15 13 12 14 15 16 16 15 15 16 15 15 15 12 11 10 10 9 10 9 10 13 18 22 24 25 26 27 30 31 28 23 19 16 15 13 9 7 6 8 5 3 5
3 3 5 10 12 11 12 16 15 14 14 14 14 15 16 17 16 16 16 16 15 12 11 12 12 13 14 14 14 14 13 15 16 14 11 11 10 10 10 12 14 18 23 26 26 26 27 27 27 26 21 14 8 8 12 14 12 10 13 12 10 13 12
6 1 5 14 17 14 13 14 14 14 14 13 14 15 16 16 16 14 14 15 15 13 13 13 13 15 18 18 16 13 11 13 17 16 14 13 12 12 12 14 18 23 27 28 25 23 22 19 17 16 15 14 14 14 15 15 15 15 13 9 10 13 13
Wind_Direction
215 198 179 171 176 193 219 179 174 206 174 146 162 231 237 105 156 253 239 266 300 283 320 350 88 131 144 158 171 175 177 179 180 185 190 193 196 198 199 200 200 200 199 198 198 198 199 199 199 200 200 202 205 207 208 208 210 212 214 216 217 220 223
229 210 184 177 183 165 152 201 208 199 145 120 121 199 323 57 161 276 292 257 275 228 267 319 78 145 164 168 172 174 176 175 178 185 189 193 197 199 200 202 202 201 199 199 199 200 201 202 203 203 203 205 206 208 210 209 209 210 212 215 216 219 221
223 213 192 199 204 172 151 182 185 153 161 187 111 153 167 112 208 273 298 274 239 201 222 231 184 181 181 173 170 173 176 178 182 185 188 192 196 198 199 200 200 201 200 200 200 201 203 204 206 207 206 206 207 210 212 212 212 211 211 213 215 218 220
192 194 195 202 218 220 158 140 164 171 166 175 181 164 157 162 194 230 280 301 270 226 217 198 192 188 175 168 175 183 185 187 188 184 184 189 193 195 197 199 201 202 202 202 203 203 205 206 208 208 207 207 209 211 213 214 215 214 214 216 218 219 220
184 191 208 195 196 207 186 153 180 220 134 148 173 188 150 142 154 184 219 268 268 248 216 190 188 182 176 177 182 188 187 189 192 189 187 189 191 194 197 200 203 204 204 205 206 206 206 207 207 207 207 208 210 212 214 215 215 215 216 218 220 221 222
211 208 212 198 192 190 173 164 185 188 148 127 158 228 287 124 148 167 175 219 265 259 199 185 189 184 183 182 178 182 189 191 196 196 192 191 191 194 199 203 207 207 207 207 207 205 205 205 205 205 207 209 210 212 214 214 215 216 217 220 221 222 222
236 222 215 201 187 176 167 174 187 176 150 128 150 204 244 206 174 145 132 192 266 264 199 176 179 173 175 181 180 184 192 196 199 198 194 193 195 199 202 204 207 209 209 208 206 204 204 204 205 206 207 209 210 212 213 214 215 216 218 222 223 222 222
262 247 233 213 183 161 162 182 169 163 169 156 151 171 179 188 192 146 133 220 267 275 216 168 162 166 176 187 190 189 193 199 201 198 194 195 199 202 203 204 207 208 208 207 204 203 204 204 205 206 207 209 210 211 213 214 215 217 219 223 223 222 220
263 257 243 228 208 178 167 172 167 172 171 159 150 126 138 217 220 157 147 212 254 279 215 162 170 170 180 193 191 189 191 198 203 199 197 199 201 202 205 207 208 208 206 205 204 204 204 204 204 206 207 208 209 211 214 215 216 217 220 222 222 220 217
199 207 213 214 210 205 194 165 177 187 175 170 173 135 143 225 233 148 150 207 254 291 49 186 198 176 179 194 185 183 186 191 198 197 194 198 200 202 207 209 209 209 207 206 205 205 204 204 204 205 206 208 210 213 215 216 217 218 220 221 221 219 215
194 198 209 204 175 184 207 192 190 199 192 184 169 126 157 198 171 170 207 192 187 216 184 198 213 186 178 186 175 173 178 184 190 191 190 195 198 202 207 209 209 208 207 206 205 205 205 205 205 206 208 210 212 214 216 216 218 219 220 221 219 217 213
210 206 212 210 182 186 201 202 202 202 193 183 167 164 185 163 136 208 244 187 163 190 199 193 202 196 183 178 169 171 174 179 185 185 186 191 196 201 204 205 205 205 206 207 206 205 206 206 206 208 210 213 215 217 217 217 218 219 221 220 218 216 212
220 215 211 202 186 193 201 204 209 203 189 181 184 202 196 154 159 213 222 190 180 189 194 193 196 192 181 176 174 171 170 175 182 182 182 187 193 198 201 203 205 206 207 206 205 206 206 206 207 208 210 213 215 217 218 218 219 222 223 220 217 215 211
230 223 213 194 180 198 208 209 211 204 194 186 187 206 200 176 197 211 183 185 198 194 190 195 195 186 175 171 170 169 168 172 178 178 178 185 195 200 202 205 207 208 209 208 208 206 205 205 206 208 210 212 215 218 218 219 221 225 224 220 218 215 211
226 220 215 200 184 194 209 213 213 209 210 206 200 209 201 184 211 210 167 178 210 220 200 189 181 172 163 161 165 166 168 171 173 176 179 184 191 198 202 205 206 208 210 210 210 208 206 206 207 209 212 215 218 219 219 220 223 227 226 221 217 214 211
211 199 159 139 151 164 207 208 195 183 206 210 202 206 179 169 188 168 154 178 212 226 201 145 152 161 156 157 161 162 165 167 168 176 184 185 187 193 199 204 207 211 212 212 212 211 210 209 209 211 214 216 217 218 220 223 225 226 224 218 213 210 209
210 199 129 99 68 44 283 233 186 128 117 104 84 52 66 163 160 137 159 207 217 201 154 136 155 170 162 161 163 163 165 163 162 169 177 180 181 181 184 194 205 213 219 221 222 219 216 213 214 216 216 217 219 221 223 223 224 224 220 215 212 211 210
207 210 132 93 67 86 239 264 281 101 109 102 83 46 353 215 133 129 166 211 200 171 162 166 174 175 167 165 166 166 165 161 158 160 162 163 167 167 163 170 186 204 219 228 233 231 224 220 220 221 221 222 224 224 223 222 223 222 216 213 213 210 206
178 163 111 110 182 198 232 275 318 100 111 103 84 54 6 19 72 89 79 78 128 145 151 151 150 152 153 153 153 154 160 162 158 156 158 160 165 166 161 167 190 208 214 220 233 237 231 227 225 223 223 224 223 223 222 221 221 217 210 209 206 201 198
150 110 108 168 213 251 306 279 200 88 90 84 70 50 14 5 31 84 90 83 86 95 110 124 129 130 129 129 134 141 148 152 150 160 177 175 168 168 166 179 230 240 227 216 224 233 234 233 230 227 226 226 224 222 219 215 212 207 203 200 193 188 187
140 121 98 181 200 338 352 325 275 322 102 130 116 89 19 354 357 24 91 99 96 98 106 116 123 122 113 104 123 143 144 148 166 190 187 168 155 157 164 170 241 254 244 234 221 228 236 236 235 235 232 226 221 215 210 207 207 205 202 198 194 190 189
86 100 76 51 127 167 270 277 292 317 235 149 125 92 350 329 348 348 57 121 118 120 119 121 124 120 105 90 146 153 158 182 190 177 164 153 146 173 185 177 200 214 204 181 185 237 241 238 240 239 232 223 214 210 210 210 209 206 202 202 204 201 198
56 89 96 118 160 180 247 264 294 325 300 167 110 65 337 304 337 336 312 131 120 126 133 136 132 115 115 195 216 159 169 175 165 160 155 148 161 220 208 194 190 188 193 225 272 270 255 246 246 241 231 222 215 212 213 209 204 202 202 207 212 207 203
46 84 107 184 171 160 275 262 297 331 336 133 92 68 257 300 333 343 72 103 96 110 122 129 123 101 146 182 94 67 157 164 153 158 158 146 196 192 180 186 196 205 227 260 277 282 276 264 254 244 234 225 217 214 213 208 204 205 209 217 219 212 211
32 65 98 273 230 344 289 278 321 347 22 80 80 154 225 312 352 46 71 66 67 81 87 86 77 69 86 92 65 64 100 126 121 137 137 74 281 221 234 258 269 281 281 277 275 275 272 268 261 250 239 230 223 219 217 214 213 214 217 224 222 218 223
60 90 93 287 261 325 307 309 1 22 49 97 107 177 214 348 27 62 66 63 63 66 71 74 72 67 64 58 51 51 61 71 67 65 56 21 349 333 311 289 285 285 279 276 273 261 252 254 262 262 249 238 229 223 221 222 221 218 222 231 229 229 238
94 72 37 60 222 307 315 316 3 28 61 159 156 121 72 47 50 56 55 55 54 52 58 62 59 54 48 40 33 30 28 25 20 12 1 348 343 343 331 303 290 282 272 269 266 256 247 248 254 258 253 242 232 226 227 230 227 222 228 239 238 239 240
75 75 36 158 241 309 352 49 88 57 80 106 102 91 74 59 56 54 49 47 45 45 50 49 43 39 34 26 20 19 18 13 5 358 352 345 339 339 338 322 299 281 270 264 257 245 243 248 249 249 248 240 232 229 232 236 232 229 236 240 235 234 232
89 124 120 315 310 358 43 75 90 84 85 87 81 77 72 64 60 57 52 47 42 41 43 40 36 33 29 24 19 15 12 6 1 357 354 350 344 340 338 325 296 269 257 255 251 243 244 249 244 239 236 232 229 231 235 236 231 226 227 226 223 223 223
104 102 65 24 22 30 49 69 77 78 79 77 72 71 70 68 65 59 51 46 39 35 37 35 30 24 19 18 16 8 3 3 0 354 346 342 340 336 329 316 293 266 244 241 248 244 229 217 215 216 215 213 216 227 234 235 233 229 223 218 214 212 211
112 100 349 5 48 48 51 62 68 70 71 69 66 65 65 66 68 63 52 39 31 31 33 31 25 17 9 6 4 360 1 2 357 348 339 334 331 325 318 306 292 272 248 240 238 220 199 196 201 203 205 206 208 214 223 229 230 221 205 196 184 173 177
110 153 264 309 73 67 59 59 61 64 69 69 66 64 61 57 57 57 51 35 25 24 21 15 13 11 6 1 354 347 350 352 345 339 335 329 323 316 308 296 285 277 259 237 216 196 189 192 191 187 179 171 167 156 142 145 143 123 109 107 106 104 109
64 78 273 308 61 59 54 58 59 58 63 66 64 61 57 50 44 39 38 32 24 20 13 5 2 359 354 349 340 332 332 336 337 335 328 319 311 302 292 281 275 273 255 226 205 192 189 190 184 171 150 144 153 154 141 137 138 115 67 39 45 59 53
149 181 194 172 117 71 43 56 62 58 59 66 66 60 53 47 39 29 21 17 17 18 10 360 354 349 343 341 336 327 321 320 322 322 315 307 300 293 286 277 266 254 234 216 201 187 179 176 174 167 157 153 157 159 157 157 148 109 44 21 36 45 24
152 205 167 132 118 117 80 68 72 69 61 63 65 59 52 47 39 30 25 22 21 18 2 347 346 346 342 340 336 329 320 311 306 302 296 291 287 282 275 266 250 226 205 200 196 181 168 165 164 161 155 149 146 150 167 179 157 99 20 339 331 302 304
28 258 170 113 102 107 89 72 68 63 56 58 60 53 49 48 43 33 30 30 30 19 357 346 352 355 352 348 339 329 320 306 296 287 276 269 266 265 256 242 231 214 196 190 187 175 164 161 161 158 159 167 194 237 242 233 231 257 285 282 242 223 226
101 72 101 90 90 97 87 70 60 55 53 56 58 52 47 47 43 35 33 36 35 26 9 357 353 350 352 354 348 337 326 307 288 273 262 254 247 246 244 233 221 206 190 181 176 169 166 172 182 192 207 229 248 253 246 243 253 266 269 246 204 205 217